Sitka, Alaska, United States (99835)
Lat: 57.05N, Lon: 135.33W
Wx Zone: AKZ023
Local Info
Past Weather Observations for Saturday, April 23, 2016

NOTE: This archive is for the closest National Weather Service station to Sitka. Information may differ from the station used for current weather conditions.

Click here for Long-term Archive

Time Weather Temperature Dewpoint Humidity Pressure Winds Precip Visibility
23:53
Partly Cloudy
45°F / 7°C 39°F / 4°C 81% 29.92 in
(1013 mb)
ESE 3.5 mph
(ESE 6 kph)
- 10SM
22:53
Mostly Cloudy
45°F / 7°C 39°F / 4°C 81% 29.92 in
(1013 mb)
E 3.5 mph
(E 6 kph)
- 10SM
21:53
Mostly Cloudy
45°F / 7°C 39°F / 4°C 81% 29.92 in
(1013 mb)
E 3.5 mph
(E 6 kph)
- 10SM
20:53
Partly Cloudy
46°F / 8°C 39°F / 4°C 76% 29.92 in
(1013 mb)
Calm - 10SM
19:53
Mostly Cloudy
46°F / 8°C 39°F / 4°C 76% 29.89 in
(1012 mb)
Calm - 10SM
18:53
Mostly Cloudy
48°F / 9°C 39°F / 4°C 71% 29.89 in
(1012 mb)
SW 8.1 mph
(SW 13 kph)
- 10SM
17:53
Overcast
48°F / 9°C 39°F / 4°C 71% 29.89 in
(1012 mb)
SW 10.4 mph
(SW 17 kph)
- 10SM
16:53
Overcast
50°F / 10°C 39°F / 4°C 67% 29.89 in
(1012 mb)
SW 9.2 mph
(SW 15 kph)
- 10SM
15:53
Overcast
50°F / 10°C 39°F / 4°C 67% 29.86 in
(1011 mb)
SW 9.2 mph
(SW 15 kph)
- 10SM
14:53
Overcast
50°F / 10°C 41°F / 5°C 71% 29.86 in
(1011 mb)
SW 11.5 mph
(SW 19 kph)
- 10SM
13:53
Mostly Cloudy
50°F / 10°C 41°F / 5°C 71% 29.83 in
(1010 mb)
SW 12.7 mph
(SW 20 kph)
- 10SM
12:53
Overcast
52°F / 11°C 41°F / 5°C 67% 29.83 in
(1010 mb)
SW 10.4 mph
(SW 17 kph)
- 10SM
11:53
Overcast
48°F / 9°C 41°F / 5°C 76% 29.83 in
(1010 mb)
SW 10.4 mph
(SW 17 kph)
- 10SM
10:53
Overcast
48°F / 9°C 43°F / 6°C 82% 29.8 in
(1009 mb)
S 6.9 mph
(S 11 kph)
0.00 in
(0.00 mm)
10SM
09:53
Overcast
Light Rain
46°F / 8°C 39°F / 4°C 76% 29.8 in
(1009 mb)
SSE 11.5 mph
(SSE 19 kph)
0.00 in
(0.00 mm)
7SM
09:32
Overcast
Light Rain
46°F / 8°C 43°F / 6°C 87% 29.77 in
(1008 mb)
S 13.8 mph
(S 22 kph)
0.00 in
(0.00 mm)
7SM
09:07
Overcast
46°F / 8°C 43°F / 6°C 87% 29.77 in
(1008 mb)
SW 10.4 mph
(SW 17 kph)
0.00 in
(0.00 mm)
7SM
08:53
Overcast
Light Rain
46°F / 8°C 43°F / 6°C 87% 29.77 in
(1008 mb)
SW 9.2 mph
(SW 15 kph)
0.03 in
(0.76 mm)
7SM
08:48
Overcast
Light Rain
46°F / 8°C 43°F / 6°C 87% 29.77 in
(1008 mb)
SW 9.2 mph
(SW 15 kph)
0.02 in
(0.51 mm)
7SM
08:34
Overcast
Light Rain
46°F / 8°C 43°F / 6°C 87% 29.77 in
(1008 mb)
SW 12.7 mph
(SW 20 kph)
0.02 in
(0.51 mm)
7SM
08:26
Overcast
Light Rain
48°F / 9°C 45°F / 7°C 87% 29.74 in
(1007 mb)
SSE 11.5 mph
(SSE 19 kph)
0.01 in
(0.25 mm)
7SM
08:06
Overcast
Light Rain
48°F / 9°C 45°F / 7°C 87% 29.74 in
(1007 mb)
S 9.2 mph
(S 15 kph)
0.01 in
(0.25 mm)
7SM
07:53
Overcast
Light Rain
48°F / 9°C 45°F / 7°C 87% 29.74 in
(1007 mb)
S 6.9 mph
(S 11 kph)
0.05 in
(1.27 mm)
6SM
07:51
Overcast
Light Rain
48°F / 9°C 45°F / 7°C 87% 29.74 in
(1007 mb)
SSE 8.1 mph
(SSE 13 kph)
0.05 in
(1.27 mm)
6SM
07:00
Overcast
Light Rain
48°F / 9°C 46°F / 8°C 94% 29.71 in
(1006 mb)
SSE 9.2 mph
(SSE 15 kph)
0.01 in
(0.25 mm)
5SM
06:53
Overcast
Light Rain
48°F / 9°C 46°F / 8°C 94% 29.71 in
(1006 mb)
SSE 10.4 mph
(SSE 17 kph)
0.03 in
(0.76 mm)
5SM
05:53
Overcast
Light Rain
48°F / 9°C 45°F / 7°C 87% 29.68 in
(1005 mb)
S 6.9 mph
(S 11 kph)
0.02 in
(0.51 mm)
8SM
05:51
Overcast
Light Rain
48°F / 9°C 45°F / 7°C 87% 29.68 in
(1005 mb)
S 5.8 mph
(S 9 kph)
0.02 in
(0.51 mm)
8SM
05:43
Overcast
Light Rain
48°F / 9°C 45°F / 7°C 87% 29.68 in
(1005 mb)
S 8.1 mph
(S 13 kph)
0.02 in
(0.51 mm)
8SM
04:53
Overcast
Light Rain
48°F / 9°C 45°F / 7°C 87% 29.68 in
(1005 mb)
SSE 11.5 mph
(SSE 19 kph)
0.04 in
(1.02 mm)
8SM
04:06
Overcast
Light Rain
48°F / 9°C 45°F / 7°C 87% 29.65 in
(1004 mb)
S 17.3 mph
(S 28 kph)
0.01 in
(0.25 mm)
10SM
03:53
Overcast
Light Rain
48°F / 9°C 45°F / 7°C 87% 29.65 in
(1004 mb)
S 20.7 mph
(S 33 kph)
0.03 in
(0.76 mm)
10SM
02:53
Overcast
Light Rain
52°F / 11°C 48°F / 9°C 88% 29.62 in
(1003 mb)
S 4.6 mph
(S 7 kph)
0.01 in
(0.25 mm)
10SM
02:44
Overcast
Light Rain
52°F / 11°C 48°F / 9°C 88% 29.62 in
(1003 mb)
S 3.5 mph
(S 6 kph)
0.01 in
(0.25 mm)
10SM
02:25
Overcast
Light Rain
52°F / 11°C 48°F / 9°C 88% 29.62 in
(1003 mb)
SE 3.5 mph
(SE 6 kph)
0.00 in
(0.00 mm)
10SM
02:20
Overcast
Light Rain
52°F / 11°C 48°F / 9°C 88% 29.62 in
(1003 mb)
SSE 4.6 mph
(SSE 7 kph)
0.00 in
(0.00 mm)
10SM
02:07
Overcast
Light Rain
52°F / 11°C 48°F / 9°C 88% 29.62 in
(1003 mb)
SSE 6.9 mph
(SSE 11 kph)
0.00 in
(0.00 mm)
10SM
01:53
Overcast
Light Rain
52°F / 11°C 48°F / 9°C 88% 29.62 in
(1003 mb)
SSE 8.1 mph
(SSE 13 kph)
0.01 in
(0.25 mm)
10SM
01:43
Overcast
Light Rain
52°F / 11°C 48°F / 9°C 88% 29.62 in
(1003 mb)
Variable 4.6 mph
(Variable 7 kph)
0.01 in
(0.25 mm)
10SM
01:35
Overcast
Light Rain
52°F / 11°C 48°F / 9°C 88% 29.62 in
(1003 mb)
Calm 0.00 in
(0.00 mm)
10SM
01:27
Overcast
Light Rain
52°F / 11°C 46°F / 8°C 82% 29.62 in
(1003 mb)
Variable 4.6 mph
(Variable 7 kph)
0.00 in
(0.00 mm)
10SM
00:53
Overcast
52°F / 11°C 46°F / 8°C 82% 29.62 in
(1003 mb)
NW 9.2 mph
(NW 15 kph)
0.00 in
(0.00 mm)
10SM
Time Weather Temperature Dewpoint Humidity Pressure Winds Precip Visibility


Weather for websites

WeatherForYou.com, LLC is not responsible for any damages or problems caused by this service. Current weather conditions are obtained from the closest station including government and personal stations which may have varying degrees of accuracy. Weather forecasts are derived from the NOAA NDFD. Like all things, this site belongs to Jesus Christ... He just trusts us to maintain it. If you have any questions or comments email webmaster@weatherforyou.com

Copyright © 2016, WeatherForYou.com LLC. All rights reserved.